NOAA 16 DEB

Satellite information

Favourite Embed

Satellite Type and Status

DEBRISIN ORBIT

Key statistics

Satellite NOAA 16 DEB at a glance.

Uptime

9054

Days in orbit

Revolutions

≈ 14.2

Per day

Orbit

SSO

Sun Synchronous Orbit

Inclination

98.8

Latest

Satellite identification and parameters

Extended collection of information and parameters for NOAA 16 DEB.

Object identification

Identified? True

Debris? True

Object name: NOAA 16 DEB

International designator: 2000-055W

Object number (NORAD): 41063

Object ID (CCSDS): 41063

Country: UNITED STATES OF AMERICA (US)

Current information (Y/N): Y

RCS size: SMALL

Orbital parameters

Period: 101.219 minutes

Inclination: 98.7653 deg

SMA: 7194.511 km

Apoapsis: 830.379 km

Periapsis: 802.374 km

RAAN: 264.1711 deg

Eccentricy: 0.0019463

Argument of periapsis: 1.203 deg

Mean anomaly: 358.9191 deg

Mean motion: 14.22658952 rev/day

Mean motion (dot): 0.00002324 rev/day2

B* drag term: 0.0010563 1/REarth

Two-line elements (TLE)

Creation date: July 5, 2025, 5:45 p.m.

Reference frame: TEME

Reference center: EARTH

Epoch: July 5, 2025, 4:53 a.m. UTC

TLE line 0: 0 NOAA 16 DEB

TLE line 1: 1 41063U 00055W 25186.20373867 .00002324 00000-0 10563-2 0 9990

TLE line 2: 2 41063 98.7653 264.1711 0019463 1.2030 358.9191 14.22658952495496

Live tracking on map

Real-time ground track for satellite NOAA 16 DEB.

In-orbit conjunctions

A list of the most updated potential collisions computed for object NOAA 16 DEB.

Target Orbit TCA Probability of collision Miss distance Type
CZ-6A DEB LEO 2025-03-08 06:32:01 0.0001152065 335.0 (m) DEBRIS
CZ-6A DEB LEO 2024-11-30 06:31:22 0.0002492791 708.0 (m) DEBRIS
SL-16 DEB LEO 2024-11-14 10:10:21 0.0001114466 39.0 (m) DEBRIS
COSMOS 374 DEB MEO 2024-11-11 11:10:43 0.001743153 223.0 (m) DEBRIS
SL-16 R/B LEO 2024-10-14 20:10:48 0.0001426608 713.0 (m) ROCKET BODY

Associated space launch

The NOAA K, L and M POES satellites begin the fifth generation of improved environmental monitoring in support of NOAA missions. The instrument payload has significant improvements and additions/deletions. The instrument changes have effected the spacecraft subsystems and data formats.

NOAA 16 DEB was lifted into orbit during the mission ‘Titan II SLV | NOAA 16’, on board a Titan II SLV space rocket.

The launch took place on Sept. 21, 2000, 10:22 a.m. from Space Launch Complex 4W.

For more information about the launch, click the button.

Launch to space Titan II SLV | NOAA 16
Titan II SLV | NOAA 16

Agency: N/A

Status: Launch Successful

Launch date: Sept. 21, 2000, 10:22 a.m. UTC

Rocket: Titan II SLV

Launch pad: Space Launch Complex 4W

Location: Vandenberg SFB, CA, USA

...

Latest news about this satellite

There are no fresh news available about this satellite. Check back as we update our databases every day.


Newsletter sign-up

Weekly statistics, charts and insights to help you stay on top of the space industry.